EW1967 Weather Reports


time (UTC)temp
F
wind
direction
speed
knots
gust
knots
rain 1hr
in
rain 24hr
in
rain mn
in
humidity
%
barometer
mb
20260504001535 49 326 0.0 0.0 0.00 0.00 0.00 83 1017.3
20260504000033 50 326 0.0 0.0 0.00 0.00 0.00 83 1017.3
20260503234533 50 327 0.0 0.0 0.00 0.00 0.00 82 1017.4
20260503233027 50 327 0.0 0.0 0.00 0.00 0.00 82 1017.5
20260503231536 51 327 0.0 0.0 0.00 0.00 0.00 80 1017.5
20260503230025 51 328 0.0 0.0 0.00 0.00 0.00 79 1017.4
20260503224523 52 328 0.0 0.0 0.00 0.00 0.00 78 1017.5
20260503223024 52 47 0.0 2.6 0.00 0.00 0.00 78 1017.5
20260503221519 53 220 0.0 0.0 0.00 0.00 0.00 77 1017.4
20260503220018 52 221 0.0 0.0 0.00 0.00 0.00 78 1017.4
20260503214516 53 221 0.0 0.0 0.00 0.00 0.00 76 1017.4
20260503213016 54 221 0.0 2.6 0.00 0.00 0.00 75 1017.2
20260503211521 55 335 0.0 0.0 0.00 0.00 0.00 74 1017.1
20260503210018 55 336 0.0 0.0 0.00 0.00 0.00 74 1017.1
20260503204515 55 340 0.0 2.6 0.00 0.00 0.00 73 1017.0
20260503203021 55 46 0.0 3.5 0.00 0.00 0.00 71 1016.8
20260503201512 58 251 0.0 2.6 0.00 0.00 0.00 68 1016.7
20260503200013 58 134 0.0 2.6 0.00 0.00 0.00 69 1016.8
20260503194519 58 171 0.0 0.0 0.00 0.00 0.00 67 1016.6
20260503193012 58 173 0.0 1.7 0.00 0.00 0.00 66 1016.5
20260503191511 61 222 0.0 2.6 0.00 0.00 0.00 63 1016.3
20260503190011 61 232 3.5 7.0 0.00 0.00 0.00 63 1016.3
20260503184510 62 229 2.6 7.0 0.00 0.00 0.00 62 1016.1
20260503183010 62 271 4.3 8.7 0.00 0.00 0.00 61 1015.9
20260503181508 63 226 3.5 9.6 0.00 0.00 0.00 61 1015.8
20260503180021 63 220 3.5 10.4 0.00 0.00 0.00 60 1015.8
20260503174518 64 236 2.6 6.1 0.00 0.00 0.00 59 1015.6
20260503173010 64 258 4.3 10.4 0.00 0.00 0.00 58 1015.5
20260503171515 65 282 0.9 7.8 0.00 0.00 0.00 58 1015.5
20260503150107 68 239 6.1 14.8 0.00 0.00 0.00 49 1015.7
20260503081557 58 46 0.0 0.0 0.00 0.00 0.00 59 1019.4
20260503071556 54 54 0.0 0.0 0.00 0.00 0.00 65 1019.9
20260503054520 42 177 0.0 0.0 0.00 0.00 0.00 87 1020.4
20260503053007 41 178 0.0 0.0 0.00 0.00 0.00 89 1020.4
20260503051501 38 178 0.0 0.0 0.00 0.00 0.00 89 1020.3
20260503044557 36 190 0.0 0.0 0.00 0.00 0.00 89 1020.1
20260503043057 35 190 0.0 0.0 0.00 0.00 0.00 89 1020.0
20260503041554 35 190 0.0 0.0 0.00 0.00 0.00 89 1020.1
20260503040055 35 190 0.0 0.0 0.00 0.00 0.00 88 1020.1
20260503034553 36 190 0.0 0.0 0.00 0.00 0.00 88 1020.1
20260503033057 36 190 0.0 0.0 0.00 0.00 0.00 88 1020.0
20260503031548 37 190 0.0 0.0 0.00 0.00 0.00 88 1020.1
20260503030048 36 190 0.0 0.0 0.00 0.00 0.00 88 1020.1
20260503024550 36 190 0.0 0.0 0.00 0.00 0.00 88 1020.2
20260503023048 36 190 0.0 0.0 0.00 0.00 0.00 87 1020.1
20260503021542 37 190 0.0 0.0 0.00 0.00 0.00 87 1020.1
20260503020046 37 190 0.0 0.0 0.00 0.00 0.00 87 1020.1
20260503014544 38 190 0.0 0.0 0.00 0.00 0.00 87 1020.2
20260503013039 37 190 0.0 0.0 0.00 0.00 0.00 86 1020.3
20260503011543 37 190 0.0 0.0 0.00 0.00 0.00 85 1020.5
20260503010035 38 190 0.0 0.0 0.00 0.00 0.00 84 1020.5
20260503004537 39 190 0.0 0.0 0.00 0.00 0.00 84 1020.6
20260503003037 39 190 0.0 0.0 0.00 0.00 0.00 84 1020.7